Tracking 27086 objects as of 22-Mar-2023
HD Live streaming from Space Station
objects crossing your sky now

STARLINK-5652

Track STARLINK-5652 now!
10-day predictions
STARLINK-5652 is classified as:


NORAD ID: 55334
Int'l Code: 2023-013D
Perigee: 398.7 km
Apogee: 400.3 km
Inclination: 43.0 °
Period: 92.4 minutes
Semi major axis: 6770 km
RCS: Unknown
Launch date: January 26, 2023
Source: United States (US)
Launch site: AIR FORCE EASTERN TEST RANGE (AFETR)
Your satellite tracking list
Your tracking list is empty




NASA's NSSDC Master Catalog

Two Line Element Set (TLE):
1 55334U 23013D   23081.25001157 -.00659381  00000-0 -91615-2 0  9992
2 55334  42.9993  72.8095 0001208 267.5095 284.6557 15.58364311  9096
Source of the keplerian elements: AFSPC